| time (UTC) | temp F | wind direction | speed MPH | gust MPH | rain 1hr in | rain 24hr in | rain mn in | humidity % | barometer mb |
| 20260505102051 | 39 | 255 | 2.0 | 2.0 | 0.00 | 0.00 | 0.00 | 79 | 1014.6 |
| 20260505101549 | 40 | 19 | 3.0 | 3.0 | 0.00 | 0.00 | 0.00 | 77 | 1014.6 |
| 20260505101045 | 39 | 291 | 2.0 | 2.0 | 0.00 | 0.00 | 0.00 | 79 | 1014.8 |
| 20260505100542 | 40 | 276 | 1.0 | 1.0 | 0.00 | 0.00 | 0.00 | 78 | 1014.3 |
| 20260505100039 | 39 | 47 | 1.0 | 1.0 | 0.00 | 0.00 | 0.00 | 78 | 1014.7 |
| 20260505095535 | 40 | 190 | 0.0 | 0.0 | 0.00 | 0.00 | 0.00 | 78 | 1014.5 |
| 20260505095032 | 39 | 314 | 0.0 | 1.0 | 0.00 | 0.00 | 0.00 | 78 | 1014.3 |
| 20260505094528 | 39 | 345 | 2.0 | 3.0 | 0.00 | 0.00 | 0.00 | 80 | 1014.3 |
| 20260505094025 | 38 | 112 | 1.0 | 2.0 | 0.00 | 0.00 | 0.00 | 82 | 1014.3 |
| 20260505093521 | 39 | 93 | 1.0 | 1.0 | 0.00 | 0.00 | 0.00 | 81 | 1014.2 |
| 20260505093019 | 38 | 55 | 2.0 | 2.0 | 0.00 | 0.00 | 0.00 | 81 | 1014.2 |
| 20260505092516 | 38 | 69 | 1.0 | 2.0 | 0.00 | 0.00 | 0.00 | 79 | 1014.0 |
| 20260505092014 | 39 | 89 | 1.0 | 1.0 | 0.00 | 0.00 | 0.00 | 78 | 1013.8 |
| 20260505091511 | 40 | 119 | 1.0 | 2.0 | 0.00 | 0.00 | 0.00 | 75 | 1014.0 |
| 20260505091009 | 40 | 103 | 1.0 | 2.0 | 0.00 | 0.00 | 0.00 | 74 | 1014.0 |
| 20260505090507 | 40 | 130 | 0.0 | 0.0 | 0.00 | 0.00 | 0.00 | 74 | 1013.7 |
| 20260505090004 | 40 | 132 | 0.0 | 0.0 | 0.00 | 0.00 | 0.00 | 74 | 1013.7 |
| 20260505085502 | 41 | 119 | 0.0 | 1.0 | 0.00 | 0.00 | 0.00 | 71 | 1013.5 |
| 20260505085000 | 42 | 114 | 1.0 | 1.0 | 0.00 | 0.00 | 0.00 | 70 | 1013.6 |
| 20260505084458 | 43 | 99 | 1.0 | 1.0 | 0.00 | 0.00 | 0.00 | 70 | 1013.7 |
| 20260505083955 | 43 | 128 | 0.0 | 1.0 | 0.00 | 0.00 | 0.00 | 70 | 1013.8 |
| 20260505083452 | 43 | 129 | 0.0 | 0.0 | 0.00 | 0.00 | 0.00 | 70 | 1013.7 |
| 20260505082949 | 43 | 129 | 0.0 | 0.0 | 0.00 | 0.00 | 0.00 | 70 | 1013.7 |
| 20260505082444 | 43 | 135 | 1.0 | 1.0 | 0.00 | 0.00 | 0.00 | 69 | 1013.7 |
| 20260505081941 | 43 | 157 | 0.0 | 0.0 | 0.00 | 0.00 | 0.00 | 69 | 1014.0 |
| 20260505081438 | 44 | 169 | 0.0 | 1.0 | 0.00 | 0.00 | 0.00 | 67 | 1013.7 |
| 20260505080935 | 45 | 125 | 2.0 | 3.0 | 0.00 | 0.00 | 0.00 | 66 | 1013.5 |
| 20260505080431 | 45 | 152 | 2.0 | 2.0 | 0.00 | 0.00 | 0.00 | 67 | 1013.7 |
| 20260505075926 | 43 | 164 | 2.0 | 2.0 | 0.00 | 0.00 | 0.00 | 70 | 1013.8 |
| 20260505075424 | 44 | 153 | 2.0 | 2.0 | 0.00 | 0.00 | 0.00 | 67 | 1013.7 |
| 20260505074921 | 46 | 128 | 4.0 | 4.0 | 0.00 | 0.00 | 0.00 | 64 | 1014.2 |
| 20260505074419 | 47 | 139 | 1.0 | 1.0 | 0.00 | 0.00 | 0.00 | 63 | 1014.2 |
| 20260505073915 | 47 | 69 | 2.0 | 3.0 | 0.00 | 0.00 | 0.00 | 64 | 1014.3 |
| 20260505073413 | 47 | 101 | 2.0 | 3.0 | 0.00 | 0.00 | 0.00 | 66 | 1014.3 |
| 20260505072910 | 48 | 93 | 1.0 | 2.0 | 0.00 | 0.00 | 0.00 | 65 | 1014.3 |
| 20260505072406 | 48 | 132 | 3.0 | 3.0 | 0.00 | 0.00 | 0.00 | 65 | 1014.3 |
| 20260505071903 | 48 | 141 | 5.0 | 6.0 | 0.00 | 0.00 | 0.00 | 64 | 1014.2 |
| 20260505071358 | 48 | 128 | 6.0 | 8.0 | 0.00 | 0.00 | 0.00 | 65 | 1014.3 |
| 20260505070856 | 48 | 126 | 3.0 | 3.0 | 0.00 | 0.00 | 0.00 | 65 | 1014.1 |
| 20260505070347 | 48 | 127 | 6.0 | 7.0 | 0.00 | 0.00 | 0.00 | 64 | 1014.1 |
| 20260505065842 | 48 | 146 | 5.0 | 6.0 | 0.00 | 0.00 | 0.00 | 65 | 1014.3 |
| 20260505065340 | 48 | 147 | 7.0 | 8.0 | 0.00 | 0.00 | 0.00 | 64 | 1014.1 |
| 20260505064837 | 48 | 148 | 4.0 | 6.0 | 0.00 | 0.00 | 0.00 | 64 | 1014.2 |
| 20260505064333 | 48 | 138 | 8.0 | 9.0 | 0.00 | 0.00 | 0.00 | 63 | 1014.3 |
| 20260505063832 | 48 | 92 | 4.0 | 6.0 | 0.00 | 0.00 | 0.00 | 63 | 1014.2 |
| 20260505063327 | 48 | 147 | 4.0 | 4.0 | 0.00 | 0.00 | 0.00 | 63 | 1014.0 |
| 20260505062824 | 48 | 151 | 6.0 | 7.0 | 0.00 | 0.00 | 0.00 | 65 | 1014.2 |
| 20260505062322 | 48 | 134 | 8.0 | 9.0 | 0.00 | 0.00 | 0.00 | 66 | 1014.0 |
| 20260505061818 | 48 | 147 | 4.0 | 4.0 | 0.00 | 0.00 | 0.00 | 66 | 1014.0 |
| 20260505061317 | 48 | 175 | 7.0 | 9.0 | 0.00 | 0.00 | 0.00 | 64 | 1013.8 |
| 20260505060814 | 49 | 130 | 10.0 | 13.0 | 0.00 | 0.00 | 0.00 | 64 | 1014.0 |
| 20260505060310 | 49 | 132 | 4.0 | 6.0 | 0.00 | 0.00 | 0.00 | 64 | 1014.2 |
| 20260505055806 | 49 | 111 | 3.0 | 6.0 | 0.00 | 0.00 | 0.00 | 63 | 1014.1 |
| 20260505055303 | 50 | 119 | 4.0 | 6.0 | 0.00 | 0.00 | 0.00 | 60 | 1014.0 |
| 20260505054800 | 50 | 95 | 6.0 | 8.0 | 0.00 | 0.00 | 0.00 | 62 | 1013.8 |
| 20260505054257 | 50 | 135 | 5.0 | 6.0 | 0.00 | 0.00 | 0.00 | 58 | 1013.8 |
| 20260505053755 | 50 | 132 | 11.0 | 13.0 | 0.00 | 0.00 | 0.00 | 62 | 1013.7 |
| 20260505053252 | 50 | 135 | 6.0 | 7.0 | 0.00 | 0.00 | 0.00 | 64 | 1014.1 |
| 20260505052749 | 50 | 149 | 4.0 | 6.0 | 0.00 | 0.00 | 0.00 | 60 | 1014.2 |
| 20260505052246 | 50 | 134 | 2.0 | 3.0 | 0.00 | 0.00 | 0.00 | 58 | 1014.3 |
| 20260505051743 | 51 | 132 | 2.0 | 3.0 | 0.00 | 0.00 | 0.00 | 60 | 1014.2 |
| 20260505051241 | 51 | 122 | 2.0 | 2.0 | 0.00 | 0.00 | 0.00 | 57 | 1014.1 |
| 20260505050738 | 51 | 73 | 4.0 | 4.0 | 0.00 | 0.00 | 0.00 | 57 | 1014.3 |
| 20260505050236 | 51 | 77 | 5.0 | 7.0 | 0.00 | 0.00 | 0.00 | 55 | 1014.2 |
| 20260505041700 | 54 | 132 | 1.0 | 1.0 | 0.00 | 0.00 | 0.00 | 46 | 1013.8 |
| 20260505041158 | 54 | 169 | 2.0 | 2.0 | 0.00 | 0.00 | 0.00 | 45 | 1014.1 |
| 20260505040655 | 54 | 181 | 1.0 | 2.0 | 0.00 | 0.00 | 0.00 | 45 | 1014.1 |
| 20260505040152 | 54 | 257 | 2.0 | 3.0 | 0.00 | 0.00 | 0.00 | 45 | 1013.8 |
| 20260505035648 | 54 | 250 | 3.0 | 3.0 | 0.00 | 0.00 | 0.00 | 45 | 1014.0 |
| 20260505035144 | 55 | 264 | 6.0 | 7.0 | 0.00 | 0.00 | 0.00 | 44 | 1013.8 |
| 20260505034640 | 55 | 232 | 2.0 | 3.0 | 0.00 | 0.00 | 0.00 | 44 | 1013.8 |
| 20260505034133 | 55 | 243 | 6.0 | 8.0 | 0.00 | 0.00 | 0.00 | 44 | 1013.6 |
| 20260505033629 | 54 | 234 | 2.0 | 4.0 | 0.00 | 0.00 | 0.00 | 45 | 1013.5 |
| 20260505033127 | 54 | 282 | 4.0 | 6.0 | 0.00 | 0.00 | 0.00 | 45 | 1013.5 |
| 20260505032625 | 54 | 242 | 5.0 | 7.0 | 0.00 | 0.00 | 0.00 | 45 | 1013.6 |
| 20260505032121 | 55 | 216 | 3.0 | 3.0 | 0.00 | 0.00 | 0.00 | 44 | 1013.5 |
| 20260505031619 | 55 | 273 | 9.0 | 10.0 | 0.00 | 0.00 | 0.00 | 44 | 1013.4 |
| 20260505031114 | 55 | 288 | 6.0 | 9.0 | 0.00 | 0.00 | 0.00 | 44 | 1013.1 |
| 20260505030612 | 55 | 283 | 5.0 | 6.0 | 0.00 | 0.00 | 0.00 | 44 | 1013.1 |
| 20260505030108 | 55 | 222 | 6.0 | 8.0 | 0.00 | 0.00 | 0.00 | 44 | 1013.1 |
| 20260505025603 | 55 | 276 | 6.0 | 8.0 | 0.00 | 0.00 | 0.00 | 44 | 1012.9 |
| 20260505025103 | 55 | 227 | 3.0 | 4.0 | 0.00 | 0.00 | 0.00 | 43 | 1013.2 |
| 20260505024559 | 55 | 269 | 6.0 | 7.0 | 0.00 | 0.00 | 0.00 | 43 | 1012.9 |
| 20260505024057 | 55 | 251 | 5.0 | 7.0 | 0.00 | 0.00 | 0.00 | 42 | 1012.9 |
| 20260505023554 | 56 | 225 | 6.0 | 11.0 | 0.00 | 0.00 | 0.00 | 41 | 1012.6 |
| 20260505023051 | 56 | 198 | 8.0 | 10.0 | 0.00 | 0.00 | 0.00 | 41 | 1012.4 |
| 20260505022548 | 56 | 239 | 6.0 | 8.0 | 0.00 | 0.00 | 0.00 | 41 | 1012.4 |
| 20260505022045 | 57 | 279 | 7.0 | 10.0 | 0.00 | 0.00 | 0.00 | 41 | 1012.3 |
| 20260505021542 | 57 | 271 | 6.0 | 9.0 | 0.00 | 0.00 | 0.00 | 41 | 1012.3 |
| 20260505021038 | 57 | 258 | 5.0 | 8.0 | 0.00 | 0.00 | 0.00 | 40 | 1012.6 |
| 20260505020533 | 57 | 267 | 7.0 | 11.0 | 0.00 | 0.00 | 0.00 | 40 | 1012.3 |
| 20260505020030 | 58 | 266 | 6.0 | 9.0 | 0.00 | 0.00 | 0.00 | 40 | 1012.4 |
| 20260505015527 | 58 | 254 | 3.0 | 6.0 | 0.00 | 0.00 | 0.00 | 40 | 1012.4 |
| 20260505015024 | 59 | 233 | 4.0 | 6.0 | 0.00 | 0.00 | 0.00 | 39 | 1012.3 |
| 20260505014521 | 59 | 228 | 4.0 | 6.0 | 0.00 | 0.00 | 0.00 | 38 | 1012.4 |
| 20260505014018 | 60 | 282 | 5.0 | 7.0 | 0.00 | 0.00 | 0.00 | 37 | 1012.3 |
| 20260505013515 | 60 | 218 | 4.0 | 6.0 | 0.00 | 0.00 | 0.00 | 37 | 1012.1 |
| 20260505013012 | 61 | 181 | 3.0 | 6.0 | 0.00 | 0.00 | 0.00 | 35 | 1012.0 |
| 20260505012510 | 61 | 177 | 4.0 | 4.0 | 0.00 | 0.00 | 0.00 | 28 | 1011.9 |
| 20260505012007 | 60 | 66 | 6.0 | 7.0 | 0.00 | 0.00 | 0.00 | 32 | 1011.7 |
| 20260505011502 | 60 | 12 | 6.0 | 8.0 | 0.00 | 0.00 | 0.00 | 29 | 1011.5 |
| 20260505011000 | 61 | 5 | 16.0 | 17.0 | 0.00 | 0.00 | 0.00 | 30 | 1011.4 |
| 20260505010455 | 61 | 54 | 5.0 | 7.0 | 0.00 | 0.00 | 0.00 | 27 | 1011.9 |
| 20260505005952 | 66 | 354 | 10.0 | 13.0 | 0.00 | 0.00 | 0.00 | 24 | 1012.0 |
| 20260505005448 | 66 | 291 | 5.0 | 7.0 | 0.00 | 0.00 | 0.00 | 24 | 1011.5 |
| 20260505004946 | 67 | 294 | 4.0 | 6.0 | 0.00 | 0.00 | 0.00 | 24 | 1011.9 |
| 20260505004443 | 66 | 261 | 3.0 | 3.0 | 0.00 | 0.00 | 0.00 | 24 | 1011.7 |
| 20260505003940 | 67 | 269 | 6.0 | 7.0 | 0.00 | 0.00 | 0.00 | 27 | 1011.8 |
| 20260505003437 | 65 | 182 | 2.0 | 4.0 | 0.00 | 0.00 | 0.00 | 29 | 1012.0 |
| 20260505002933 | 65 | 213 | 11.0 | 14.0 | 0.00 | 0.00 | 0.00 | 30 | 1012.0 |
| 20260505002429 | 63 | 224 | 11.0 | 15.0 | 0.00 | 0.00 | 0.00 | 33 | 1011.8 |
| 20260505001928 | 63 | 223 | 6.0 | 8.0 | 0.00 | 0.00 | 0.00 | 32 | 1011.8 |
| 20260505001425 | 64 | 277 | 9.0 | 15.0 | 0.00 | 0.00 | 0.00 | 33 | 1011.9 |
| 20260505000922 | 64 | 284 | 10.0 | 15.0 | 0.00 | 0.00 | 0.00 | 33 | 1012.1 |
| 20260505000420 | 64 | 262 | 7.0 | 8.0 | 0.00 | 0.00 | 0.00 | 32 | 1012.3 |
| 20260504235916 | 65 | 173 | 5.0 | 7.0 | 0.00 | 0.00 | 0.00 | 31 | 1012.0 |
| 20260504235414 | 64 | 218 | 9.0 | 11.0 | 0.00 | 0.00 | 0.00 | 31 | 1012.1 |
| 20260504234910 | 65 | 194 | 7.0 | 8.0 | 0.00 | 0.00 | 0.00 | 31 | 1012.0 |
| 20260504234408 | 65 | 213 | 4.0 | 4.0 | 0.00 | 0.00 | 0.00 | 24 | 1011.8 |
| 20260504233904 | 64 | 170 | 0.0 | 0.0 | 0.00 | 0.00 | 0.00 | 25 | 1011.9 |
| 20260504233359 | 65 | 214 | 3.0 | 3.0 | 0.00 | 0.00 | 0.00 | 24 | 1012.1 |
| 20260504232856 | 65 | 260 | 4.0 | 4.0 | 0.00 | 0.00 | 0.00 | 23 | 1011.9 |
| 20260504232354 | 65 | 2 | 7.0 | 9.0 | 0.00 | 0.00 | 0.00 | 24 | 1012.1 |
| 20260504231850 | 64 | 328 | 4.0 | 6.0 | 0.00 | 0.00 | 0.00 | 25 | 1011.8 |
| 20260504231347 | 65 | 324 | 5.0 | 6.0 | 0.00 | 0.00 | 0.00 | 24 | 1011.8 |
| 20260504230843 | 65 | 258 | 5.0 | 7.0 | 0.00 | 0.00 | 0.00 | 23 | 1011.9 |
| 20260504230341 | 66 | 339 | 1.0 | 2.0 | 0.00 | 0.00 | 0.00 | 21 | 1011.9 |
| 20260504225839 | 68 | 234 | 5.0 | 8.0 | 0.00 | 0.00 | 0.00 | 21 | 1011.7 |
| 20260504225335 | 67 | 289 | 7.0 | 8.0 | 0.00 | 0.00 | 0.00 | 22 | 1011.9 |
| 20260504224833 | 65 | 258 | 3.0 | 4.0 | 0.00 | 0.00 | 0.00 | 24 | 1011.8 |
| 20260504224330 | 65 | 279 | 3.0 | 6.0 | 0.00 | 0.00 | 0.00 | 23 | 1011.9 |
| 20260504223827 | 65 | 273 | 2.0 | 3.0 | 0.00 | 0.00 | 0.00 | 23 | 1012.0 |
| 20260504223322 | 66 | 285 | 6.0 | 7.0 | 0.00 | 0.00 | 0.00 | 22 | 1011.9 |
| 20260504222819 | 65 | 280 | 7.0 | 9.0 | 0.00 | 0.00 | 0.00 | 23 | 1011.9 |
| 20260504222316 | 65 | 296 | 9.0 | 10.0 | 0.00 | 0.00 | 0.00 | 23 | 1011.9 |
| 20260504221814 | 66 | 297 | 11.0 | 15.0 | 0.00 | 0.00 | 0.00 | 23 | 1012.1 |
| 20260504221310 | 68 | 311 | 9.0 | 13.0 | 0.00 | 0.00 | 0.00 | 22 | 1011.9 |
| 20260504220808 | 66 | 186 | 2.0 | 3.0 | 0.00 | 0.00 | 0.00 | 22 | 1012.1 |
| 20260504220304 | 66 | 257 | 4.0 | 4.0 | 0.00 | 0.00 | 0.00 | 21 | 1012.3 |
| 20260504215802 | 67 | 285 | 6.0 | 8.0 | 0.00 | 0.00 | 0.00 | 19 | 1012.0 |
| 20260504215258 | 68 | 252 | 3.0 | 4.0 | 0.00 | 0.00 | 0.00 | 19 | 1012.3 |
| 20260504214754 | 68 | 288 | 6.0 | 7.0 | 0.00 | 0.00 | 0.00 | 19 | 1012.3 |
| 20260504214251 | 68 | 216 | 2.0 | 2.0 | 0.00 | 0.00 | 0.00 | 19 | 1012.4 |
| 20260504213747 | 68 | 257 | 12.0 | 15.0 | 0.00 | 0.00 | 0.00 | 19 | 1012.3 |
| 20260504213243 | 67 | 322 | 2.0 | 3.0 | 0.00 | 0.00 | 0.00 | 20 | 1012.9 |
| 20260504212741 | 68 | 283 | 5.0 | 8.0 | 0.00 | 0.00 | 0.00 | 20 | 1012.6 |
| 20260504212237 | 69 | 196 | 1.0 | 2.0 | 0.00 | 0.00 | 0.00 | 21 | 1012.7 |
| 20260504211735 | 69 | 175 | 2.0 | 3.0 | 0.00 | 0.00 | 0.00 | 20 | 1012.6 |
| 20260504211231 | 69 | 278 | 8.0 | 10.0 | 0.00 | 0.00 | 0.00 | 20 | 1012.6 |
| 20260504210728 | 68 | 276 | 7.0 | 9.0 | 0.00 | 0.00 | 0.00 | 20 | 1012.7 |
| 20260504210225 | 67 | 287 | 6.0 | 6.0 | 0.00 | 0.00 | 0.00 | 20 | 1013.0 |
| 20260504205722 | 66 | 291 | 3.0 | 6.0 | 0.00 | 0.00 | 0.00 | 21 | 1012.9 |
| 20260504205220 | 67 | 281 | 10.0 | 13.0 | 0.00 | 0.00 | 0.00 | 20 | 1013.1 |
| 20260504204718 | 66 | 335 | 10.0 | 13.0 | 0.00 | 0.00 | 0.00 | 20 | 1013.0 |
| 20260504204216 | 66 | 194 | 3.0 | 4.0 | 0.00 | 0.00 | 0.00 | 20 | 1013.1 |
| 20260504203715 | 68 | 282 | 9.0 | 13.0 | 0.00 | 0.00 | 0.00 | 20 | 1013.1 |
| 20260504203212 | 67 | 10 | 5.0 | 7.0 | 0.00 | 0.00 | 0.00 | 20 | 1013.4 |
| 20260504202712 | 68 | 275 | 9.0 | 13.0 | 0.00 | 0.00 | 0.00 | 20 | 1013.0 |
| 20260504202209 | 67 | 300 | 8.0 | 10.0 | 0.00 | 0.00 | 0.00 | 20 | 1013.2 |
| 20260504201706 | 67 | 273 | 8.0 | 11.0 | 0.00 | 0.00 | 0.00 | 21 | 1013.2 |
| 20260504201204 | 68 | 292 | 12.0 | 14.0 | 0.00 | 0.00 | 0.00 | 21 | 1013.2 |
| 20260504200701 | 68 | 239 | 1.0 | 2.0 | 0.00 | 0.00 | 0.00 | 19 | 1013.4 |
| 20260504200157 | 66 | 294 | 3.0 | 4.0 | 0.00 | 0.00 | 0.00 | 21 | 1013.4 |
| 20260504195653 | 66 | 10 | 4.0 | 6.0 | 0.00 | 0.00 | 0.00 | 21 | 1013.5 |
| 20260504195149 | 68 | 200 | 6.0 | 7.0 | 0.00 | 0.00 | 0.00 | 20 | 1013.5 |
| 20260504194646 | 68 | 136 | 0.0 | 1.0 | 0.00 | 0.00 | 0.00 | 20 | 1013.6 |
| 20260504194142 | 66 | 289 | 5.0 | 7.0 | 0.00 | 0.00 | 0.00 | 21 | 1013.6 |
| 20260504193639 | 65 | 280 | 4.0 | 4.0 | 0.00 | 0.00 | 0.00 | 21 | 1013.7 |
| 20260504193137 | 67 | 251 | 4.0 | 6.0 | 0.00 | 0.00 | 0.00 | 20 | 1014.0 |
| 20260504192635 | 68 | 196 | 1.0 | 1.0 | 0.00 | 0.00 | 0.00 | 21 | 1014.0 |
| 20260504192133 | 67 | 234 | 3.0 | 3.0 | 0.00 | 0.00 | 0.00 | 22 | 1014.0 |
| 20260504191631 | 67 | 230 | 2.0 | 3.0 | 0.00 | 0.00 | 0.00 | 20 | 1013.8 |
| 20260504191127 | 68 | 235 | 4.0 | 4.0 | 0.00 | 0.00 | 0.00 | 20 | 1014.1 |
| 20260504190623 | 67 | 197 | 5.0 | 7.0 | 0.00 | 0.00 | 0.00 | 21 | 1014.1 |
| 20260504190120 | 67 | 7 | 0.0 | 0.0 | 0.00 | 0.00 | 0.00 | 19 | 1014.2 |
| 20260504185616 | 67 | 294 | 8.0 | 9.0 | 0.00 | 0.00 | 0.00 | 20 | 1014.5 |
| 20260504185113 | 66 | 15 | 4.0 | 6.0 | 0.00 | 0.00 | 0.00 | 20 | 1014.3 |
| 20260504184609 | 66 | 12 | 5.0 | 7.0 | 0.00 | 0.00 | 0.00 | 20 | 1014.3 |
| 20260504184104 | 67 | 305 | 2.0 | 4.0 | 0.00 | 0.00 | 0.00 | 20 | 1014.3 |
| 20260504183601 | 65 | 355 | 1.0 | 2.0 | 0.00 | 0.00 | 0.00 | 21 | 1014.3 |
| 20260504183059 | 66 | 301 | 1.0 | 3.0 | 0.00 | 0.00 | 0.00 | 22 | 1014.6 |
| 20260504182556 | 66 | 2 | 3.0 | 4.0 | 0.00 | 0.00 | 0.00 | 21 | 1014.7 |
| 20260504182053 | 64 | 51 | 0.0 | 0.0 | 0.00 | 0.00 | 0.00 | 21 | 1014.9 |
| 20260504181550 | 63 | 286 | 1.0 | 1.0 | 0.00 | 0.00 | 0.00 | 22 | 1014.9 |
| 20260504181048 | 66 | 342 | 3.0 | 4.0 | 0.00 | 0.00 | 0.00 | 22 | 1015.1 |
| 20260504180547 | 64 | 338 | 0.0 | 0.0 | 0.00 | 0.00 | 0.00 | 22 | 1015.1 |
| 20260504180046 | 64 | 287 | 3.0 | 3.0 | 0.00 | 0.00 | 0.00 | 21 | 1015.1 |
| 20260504175542 | 67 | 278 | 5.0 | 6.0 | 0.00 | 0.00 | 0.00 | 21 | 1015.2 |
| 20260504175039 | 68 | 275 | 0.0 | 1.0 | 0.00 | 0.00 | 0.00 | 22 | 1015.2 |
| 20260504174537 | 66 | 278 | 0.0 | 1.0 | 0.00 | 0.00 | 0.00 | 22 | 1015.2 |
| 20260504174034 | 66 | 113 | 1.0 | 1.0 | 0.00 | 0.00 | 0.00 | 21 | 1015.6 |
| 20260504173531 | 64 | 288 | 3.0 | 3.0 | 0.00 | 0.00 | 0.00 | 21 | 1015.3 |
| 20260504173028 | 64 | 275 | 3.0 | 4.0 | 0.00 | 0.00 | 0.00 | 22 | 1015.4 |
| 20260504172524 | 66 | 22 | 1.0 | 1.0 | 0.00 | 0.00 | 0.00 | 22 | 1015.3 |
| 20260504172021 | 64 | 151 | 3.0 | 4.0 | 0.00 | 0.00 | 0.00 | 23 | 1015.2 |
| 20260504171518 | 65 | 270 | 3.0 | 4.0 | 0.00 | 0.00 | 0.00 | 24 | 1015.4 |
| 20260504171015 | 63 | 276 | 2.0 | 2.0 | 0.00 | 0.00 | 0.00 | 23 | 1015.4 |
| 20260504170510 | 63 | 289 | 4.0 | 6.0 | 0.00 | 0.00 | 0.00 | 24 | 1015.6 |
| 20260504160425 | 61 | 238 | 4.0 | 4.0 | 0.00 | 0.00 | 0.00 | 28 | 1015.6 |
| 20260504150849 | 55 | 14 | 2.0 | 2.0 | 0.00 | 0.00 | 0.00 | 38 | 1016.2 |
| 20260504150346 | 54 | 21 | 1.0 | 2.0 | 0.00 | 0.00 | 0.00 | 38 | 1016.3 |
| 20260504141316 | 50 | 158 | 0.0 | 0.0 | 0.00 | 0.00 | 0.00 | 43 | 1016.7 |
| 20260504140812 | 47 | 148 | 0.0 | 0.0 | 0.00 | 0.00 | 0.00 | 45 | 1016.5 |
| 20260504140308 | 46 | 124 | 0.0 | 0.0 | 0.00 | 0.00 | 0.00 | 48 | 1016.5 |
| 20260504130737 | 46 | 222 | 7.0 | 9.0 | 0.00 | 0.00 | 0.00 | 45 | 1016.0 |
| 20260504130233 | 46 | 222 | 6.0 | 9.0 | 0.00 | 0.00 | 0.00 | 44 | 1015.8 |
| 20260504120156 | 39 | 208 | 0.0 | 0.0 | 0.00 | 0.00 | 0.00 | 55 | 1015.6 |
| 20260504110624 | 41 | 183 | 2.0 | 3.0 | 0.00 | 0.00 | 0.00 | 51 | 1015.7 |
| 20260504110120 | 41 | 212 | 4.0 | 6.0 | 0.00 | 0.00 | 0.00 | 51 | 1015.8 |